Regional Weather Roundup
Issued by NWS Grand Forks, ND

Home | Current Version | Previous Version | Graphics & Text | Print | Product List | Glossary Off
Versions: 1 2 3 4 5 6 7 8 9 10 11 12 13 14 15 16 17 18 19 20 21 22 23 24 25 26 27 28 29 30 31 32 33 34 35 36 37 38 39 40 41 42 43 44 45 46 47 48 49 50

000
ASUS43 KFGF 230710
RWRFGF
PRAIRIE TO PINES  WEATHER ROUNDUP
NATIONAL WEATHER SERVICE EASTERN NORTH DAKOTA/GRAND FORKS ND
200 AM CDT WED APR 23 2014

 **SATELLITE DATA USED TO AUGMENT SKY COVER AT AUTOMATED STATIONS**
 *****  WEATHER ACROSS EASTERN NORTH DAKOTA  *****

CITY           SKY/WX    TMP DP  RH WIND       PRES   REMARKS
GRAND FORKS    PTCLDY    46  27  47 SE14      29.96F
GRAND FRKS AFB PTCLDY    42  29  60 E9        29.95F
GRAND FRKS NWS   N/A     45 N/A N/A SE18        N/A
DEVILS LAKE    CLEAR     43  30  61 SE14      29.88F
FARGO          MOCLDY    48  29  47 SE13      29.95S
WAHPETON ARPT  CLOUDY    46  32  57 SE12G17   29.97S
$$

 ***** WEATHER ACROSS CENTRAL AND WESTERN NORTH DAKOTA  *****

CITY           SKY/WX    TMP DP  RH WIND       PRES   REMARKS
BISMARCK       CLOUDY    51  42  71 SE22G31   29.70F
MINOT          PTCLDY    47  33  58 E16G25    29.73F
JAMESTOWN      CLOUDY    49  35  58 SE22      29.84F
MINOT AFB      PTCLDY    46  34  63 SE22      29.73F
GARRISON         N/A     51  34  52 E24G35    29.68F
WILLISTON      CLOUDY    54  32  43 E23G38    29.56F
DICKINSON      LGT RAIN  53  33  46 SE22G32   29.55F
HETTINGER      CLOUDY    52  32  46 E17       29.54F
$$

 *****  OTHER AIRPORT OBSERVATIONS IN OUR AREA  *****

CITY           SKY/WX    TMP DP  RH WIND       PRES   REMARKS
WALHALLA       FAIR      39  34  81 SE7       29.97F
GRAFTON AIRPOR FAIR      39  32  75 E13       29.97F
VALLEY CITY AR CLOUDY    46  32  57 SE14G21   29.90F
CANDO          FAIR      41  32  70 SE17      29.89S
CAVALIER APRT  FAIR      39  32  75 E9        29.97F
GWINNER        PTSUNNY   52  36  54 SE17G24   29.91F
ROLLA          FAIR      39  32  75 SE13      29.90S
 ***** THE ABOVE OBSERVATIONS ARE NON NWS ARE NOT QUALITY
       CONTROLLED AND MAY MIS-REPORT RAIN FOR SNOW...
$$

  *****  WEATHER ACROSS NORTHERN MINNESOTA  *****

CITY           SKY/WX    TMP DP  RH WIND       PRES   REMARKS
FLAG ISLAND    CLEAR     30  21  69 CALM      30.06F
WARROAD        CLEAR     30  25  80 E5        30.06F
ROSEAU         CLEAR     37  25  60 E9        30.04F
HALLOCK        CLOUDY    39  27  60 E13       29.99F
THF RVR FALLS  PTCLDY    39  23  52 E12       30.01F
BAUDETTE       PTCLDY    35  22  58 SE6       30.07F
WASKISH        PTCLDY    36  23  60 E6        30.07S
CROOKSTON      CLEAR     43  27  52 SE10      29.99F
$$
  *****  WEATHER ACROSS CENTRAL AND WEST MINNESOTA  *****

CITY           SKY/WX    TMP DP  RH WIND       PRES   REMARKS
FOSSTON        PTCLDY    39  25  56 SE12      30.01F
BEMIDJI        PTCLDY    30  21  70 E5        30.04F
PARK RAPIDS    CLEAR     39  23  52 E7        30.02F
ELBOW LAKE     CLOUDY    47  29  49 SE14      29.98F
WADENA         PTCLDY    39  25  56 E7        30.02S
DETROIT LAKES  PTCLDY    43  28  56 SE10      30.01S
MOORHEAD       MOCLDY    46  28  49 SE8       29.97F
FERGUS FALLS   CLOUDY    48  25  40 SE15      29.95F
MORRIS MN      CLOUDY    48  32  53 SE16      29.98S
STAPLES        PTCLDY    39  25  56 SE3       30.04S
$$
  *****  WEATHER ELSEWHERE ACROSS MINNESOTA  *****

CITY           SKY/WX    TMP DP  RH WIND       PRES   REMARKS
DULUTH         CLEAR     36  20  52 E3        30.10S
INTRNTL FALLS  CLEAR     26  22  84 CALM      30.09S
ELY            CLEAR     25  21  86 CALM      30.11S
CLOQUET        CLEAR     30  21  69 E3        30.10S
WHEATON        CLOUDY    52  36  54 SE15      29.98S
BRAINERD       CLEAR     38  25  59 CALM      30.06F
HIBBING        CLEAR     26  22  84 CALM      30.10R
ALEXANDRIA     MOCLDY    45  27  49 SE13G22   30.01F
SAINT CLOUD    PTCLDY    44  23  43 SE5       30.06S
MINNEAPOLIS    PTCLDY    44  25  47 E9        30.08S
$$

  *****  WEATHER ACROSS SOUTH DAKOTA  *****

CITY           SKY/WX    TMP DP  RH WIND       PRES   REMARKS
SIOUX FALLS    PTCLDY    53  34  48 SE17G25   29.92F
BROOKINGS      NOT AVBL
WATERTOWN      CLOUDY    52  35  52 SE13G24   29.91R
HURON          CLOUDY    57  33  40 SE18G29   29.81F
SISSETON         N/A     49  37  63 S14       29.94S
ABERDEEN       CLOUDY    49  40  71 SE17G24   29.84S
MITCHELL       CLOUDY    56  35  45 SE23      29.83F
PIERRE         CLOUDY    58  33  39 SE28G43   29.60
MOBRIDGE       CLOUDY    56  33  42 SE28G45   29.63F
RAPID CITY     CLOUDY    57  45  64 S12       29.53F
$$

  *****  SOME WEATHER IN NEARBY STATES *****

CITY           SKY/WX    TMP DP  RH WIND       PRES   REMARKS
GLASGOW MT     PTCLDY    56  32  40 E29G36    29.38F
GREAT FALLS MT LGT RAIN  42  42 100 SW6       29.57R
CHEYENNE WY    CLOUDY    51  35  54 SW8       29.66F
SCOTTSBLUFF NE CLOUDY    57  44  62 E13       29.55F
OMAHA NE       MOCLDY    57  34  41 SE10      29.97R
DES MOINES IA  CLOUDY    54  32  43 E7        30.05S
DAVENPORT IA   CLEAR     41  32  70 E13       30.10R
CHICAGO IL     CLEAR     38  27  64 NE9       30.11R
EAU CLAIRE WI  CLEAR     30  23  75 NE5       30.11F
LA CROSSE WI   CLEAR     43  26  51 CALM      30.12S
$$

  *****  SOME NATIONAL WEATHER *****

CITY           SKY/WX    TMP DP  RH WIND       PRES   REMARKS
LA GUARDIA NY  MOCLDY    58  45  62 NW13      29.49S
RALEIGH NC     CLEAR     61  54  77 W6        29.70F
ATLANTA GA     CLEAR     60  58  92 NW9       29.86F
NEW ORLEANS LA CLEAR     65  63  93 CALM      29.93S
OKLAHOMA CITY  PTCLDY    56  43  61 SE10      29.93F
ALBUQUERQUE NM MOCLDY    67  29  24 S13       29.86S
SALT LAKE CITY CLOUDY    41  41 100 S5        29.88R
LOS ANGELES CA PTCLDY    60  50  69 SW5       29.92F
BOISE ID       CLEAR     37  32  82 CALM      29.93R
SEATTLE WA     CLOUDY    44  42  93 S9        29.88S
$$

*** WEATHER ACROSS MANITOBA...SASKATCHEWAN AND ONTARIO ***
                ***ONTARIO***

CITY           SKY/WX    TMP DP  RH WIND       PRES   REMARKS
GERALDTON      CLEAR     21  19  93 CALM      30.09R
THUNDER BAY    CLEAR     27  25  93 W2        30.14R
SIOUX LOOKOUT  CLEAR     25  23  93 S2        30.09S
TORONTO        CLOUDY    39  34  81 NW20G29   29.74R
BIG TROUT LK   MOCLDY    25  18  74 CALM      30.08R
PICKLE LAKE    NOT AVBL
DRYDEN         CLEAR     36  21  55 SW6       30.09S
KENORA         CLEAR     39  19  45 SE6       30.08S
$$
                *** MANITOBA***

CITY           SKY/WX    TMP DP  RH WIND       PRES   REMARKS
BRANDON        CLEAR     45  34  65 E13       29.92F
DAUPHIN        MOCLDY    41  36  81 SE15      29.93F
ISLAND LAKE    PTCLDY    32  32 100 SE3       30.07R
PILOT MOUND      N/A     41  32  70 E15         N/A
THE PAS        CLEAR     37  28  70 SE6         N/A
THOMPSON       CLEAR     32  27  80 NE10      30.09R WCI  24
WINNIPEG       PTCLDY    39  23  52 E8        30.02F
LYNN LAKE      CLEAR     28  23  80 NE10      30.11R WCI  19
CHURCHILL      CLOUDY    23  23 100 N10       30.21R WCI  12
GILLAM         PTCLDY    30  19  64 NE9       30.12R WCI  22
$$
                ***SASKATCHEWAN***

CITY           SKY/WX    TMP DP  RH WIND       PRES   REMARKS
ESTEVAN        CLOUDY    48  36  61 SE17G23   29.69F
KINDERSLEY     CLOUDY    52  36  54 SE20G29   29.47R
LLOYDMINSTER   CLOUDY    50  37  62 E29G37    29.52F
PRINCE ALBERT  MOCLDY    43  32  65 E14G20    29.78S
REGINA         PTCLDY    48  34  57 E24G37    29.65F
YORKTON        CLEAR     41  36  81 SE14G20   29.83F
N. BATTLEFORD  PTCLDY    46  37  71 E26G35    29.60F
LA RONGE       NOT AVBL
SASKATOON      MOCLDY    48  36  61 E23G37    29.64F
SWIFT CURRENT  CLOUDY    54  32  43 SE23G32   29.43F
$$
NOTE: THESE ARE AUTOMATED STATIONS WITH LIMITED QUALITY CONTROL
      "FAIR" INDICATES FEW OR NO CLOUDS BELOW 12,000 FEET WITH NO
      SIGNIFICANT WEATHER AND/OR OBSTRUCTIONS TO VISIBILITY.
      SKY/WX - SKY CONDITION AND SIGNIFICANT WEATHER.
      TMP - AIR TEMPERATURE.    DP   - DEWPOINT TEMPERATURE.
      RH  - RELATIVE HUMIDITY.  PRES - PRESSURE.
      HX  - HEAT INDEX.         WCI  - WIND CHILL INDEX.
$



USA.gov is the U.S. government's official web portal to all federal, state and local government web resources and services.